#timestamp,LO_Frequency,Hit 
1499680815.7,286046961.5,N
1499680835.6,286046961.5,N
1499680855.4,286046961.6,N
1499680875.2,286046962.5,N
1499680895.1,286046962.8,N
1499680896.0,286046962.8,N
1499680915.8,286046959.7,N
1499680935.6,286046961.5,N
1499680955.5,286046962.5,N
1499680975.3,286046962.4,N
1499680995.1,286046959.7,N
1499681015.8,286046961.2,N
1499681035.7,286046958.6,N
1499681055.5,286046958.2,N
1499681075.3,286046960.7,N
1499681095.2,286046958.2,N
1499681115.0,286046960.9,N
1499681115.9,286046960.9,N
1499681135.7,286046958.5,N
1499681155.6,286046961.0,N
1499681175.4,286046961.2,N
1499681195.2,286046958.1,N
1499681215.1,286046959.3,N
1499681216.0,286046959.3,N
1499681235.8,286046959.1,N
1499681255.6,286046955.4,N
1499681275.5,286046955.2,N
1499681295.3,286046955.8,N
1499681315.1,286046955.6,N
1499681335.9,286046955.4,N
1499681355.7,286046957.5,N
1499681375.5,286046956.8,N
1499681395.4,286046959.3,N
1499681415.2,286046955.5,N
1499681435.0,286046955.2,N
1499681435.9,286046955.2,N
1499681455.8,286046955.5,N
1499681475.6,286046955.4,N
1499681495.4,286046955.7,N
1499681515.2,286046955.9,N
1499681535.1,286046956.0,N
1499681536.0,286046956.0,N
1499681555.8,286046956.2,N
1499681575.6,286046953.8,N
1499681595.5,286046951.9,N
1499681615.3,286046951.0,N
1499681635.1,286046951.0,N
1499681655.9,286046951.1,N
1499681675.7,286046950.8,N
1499681695.5,286046950.7,N
1499681715.4,286046951.2,N
1499681735.2,286046948.9,N
1499681755.0,286046948.9,N
1499681755.9,286046948.9,N
1499681775.8,286046949.1,N
1499681795.6,286046949.3,N
1499681815.4,286046949.5,N
1499681835.2,286046947.1,N
1499681855.1,286046947.7,N
1499681856.0,286046947.7,N
1499681875.8,286046945.6,N
1499681895.6,286046945.6,N
1499681915.5,286046946.3,N
1499681935.3,286046945.4,N
1499681955.1,286046945.3,N
1499681975.9,286046949.9,N
1499681995.7,286046947.4,N
1499682015.5,286046945.5,N
1499682035.4,286046946.7,N
1499682055.2,286046944.6,N
1499682075.0,286046944.9,N
1499682075.9,286046944.9,N
1499682095.8,286046942.6,N
1499682115.6,286046944.7,N
1499682135.4,286046945.1,N
1499682155.3,286046944.6,N
1499682175.1,286046942.5,N
1499682176.0,286046942.5,N
1499682195.8,286046942.5,N
1499682215.7,286046942.8,N
1499682235.5,286046942.4,N
1499682255.3,286046943.4,N
1499682275.1,286046943.4,N
1499682295.9,286046943.2,N
1499682315.7,286046940.5,N
1499682335.5,286046941.1,N
1499682355.4,286046941.3,N
1499682375.2,286046941.2,N
1499682395.0,286046941.3,N
1499682395.9,286046941.3,N
1499682415.8,286046941.7,N
1499682435.6,286046939.4,N
1499682455.4,286046940.1,N
1499682475.3,286046940.0,N
1499682495.1,286046938.2,N
1499682496.0,286046938.2,N
1499682515.8,286046938.4,N
1499682535.7,286046938.8,N
1499682555.5,286046938.8,N
1499682575.3,286046935.7,N
1499682595.2,286046936.0,N
1499682615.9,286046936.2,N
1499682635.7,286046936.8,N
1499682655.5,286046936.6,N
1499682675.4,286046936.8,N
1499682695.2,286046934.7,N
1499682715.0,286046935.1,N
1499682715.9,286046935.1,N
1499682735.8,286046934.6,N
1499682755.6,286046935.0,N
1499682775.4,286046935.6,N
1499682795.3,286046935.4,N
1499682815.1,286046932.6,N
1499682835.8,286046933.2,N
1499682855.7,286046931.4,N
1499682875.5,286046931.5,N
1499682895.3,286046932.2,N
1499682915.2,286046930.0,N
1499682935.9,286046929.5,N
1499682955.7,286046932.4,N
1499682975.6,286046932.3,N
1499682995.4,286046931.8,N
1499683015.2,286046930.0,N
1499683035.0,286046928.4,N
1499683035.9,286046928.4,N
1499683055.8,286046928.5,N
1499683075.6,286046929.0,N
1499683095.4,286046928.6,N
1499683115.3,286046927.8,N
1499683135.1,286046930.2,N
1499683136.0,286046930.2,N
1499683155.8,286046929.7,N
1499683175.7,286046930.4,N
1499683195.5,286046928.4,N
1499683215.3,286046927.9,N
1499683235.2,286046926.3,N
1499683255.9,286046926.3,N
1499683275.7,286046927.1,N
1499683295.6,286046925.0,N
1499683315.4,286046925.8,N
1499683335.2,286046925.6,N
1499683355.0,286046923.4,N
1499683356.0,286046923.4,N
1499683375.8,286046923.5,N
1499683395.6,286046923.2,N
1499683415.4,286046923.9,N
1499683435.3,286046923.7,N
1499683455.1,286046924.2,N
1499683475.8,286046924.0,N
1499683495.7,286046924.2,N
1499683515.5,286046922.1,N
1499683535.3,286046921.6,N
1499683555.2,286046921.6,N
1499683575.9,286046920.1,N
1499683595.7,286046920.4,N
1499683615.6,286046921.2,N
1499683635.4,286046918.8,N
1499683655.2,286046918.2,N
1499683675.1,286046918.3,N
1499683676.0,286046918.3,N
1499683695.8,286046916.6,N
1499683715.6,286046916.5,N
1499683735.5,286046917.6,N
1499683755.3,286046917.4,N
1499683775.1,286046915.3,N
1499683795.8,286046918.0,N
1499683815.7,286046915.9,N
1499683835.5,286046916.1,N
1499683855.3,286046916.1,N
1499683875.2,286046913.8,N
1499683895.9,286046912.2,N
1499683915.7,286046914.3,N
1499683935.6,286046911.7,N
1499683955.4,286046912.5,N
1499683975.2,286046912.5,N
1499683995.1,286046912.6,N
1499683996.0,286046912.6,N
1499684015.8,286046912.9,N
1499684035.6,286046913.2,N
1499684055.5,286046911.1,N
1499684075.3,286046908.5,N
1499684095.1,286046908.5,N
1499684115.9,286046908.7,N
1499684135.7,286046908.6,N
1499684155.5,286046911.6,N
1499684175.3,286046908.5,N
1499684195.2,286046909.5,N
1499684215.0,286046909.9,N
1499684215.9,286046909.9,N
1499684235.7,286046907.3,N
1499684255.6,286046907.5,N
1499684275.4,286046910.0,N
1499684295.2,286046907.0,N
1499684315.1,286046907.1,N
1499684316.0,286046907.1,N
1499684335.8,286046905.3,N
1499684355.6,286046908.3,N
1499684375.5,286046908.2,N
1499684395.3,286046905.8,N
